(193173) = 2000 LE9 = 2004 RY170

Discovered at Socorro on 2000-06-05 by LINEAR.

Orbit

Orbit type: Main Belt

Note: WebGL enabled browser required.

epoch2023-09-13.0
epoch JD2460200.5
perihelion date2022-03-27.54799
perihelion JD2459666.04799
argument of perihelion (°)33.00430
ascending node (°)202.64842
inclination (°)3.50617
eccentricity0.2829672
perihelion distance (AU)1.7036497
Tisserand w.r.t. Jupiter3.5
ΔV w.r.t. Earth (km/sec)8.2
semimajor axis (AU)2.3759718
mean anomaly (°)143.83038
mean daily motion (°/day)0.26911750
aphelion distance (AU)3.048
period (years)3.66
P-vector [x]-0.56460014
P-vector [y]-0.76989086
P-vector [z]-0.29748066
Q-vector [x]0.82502854
Q-vector [y]-0.53672206
Q-vector [z]-0.17679744
absolute magnitude17.0
phase slope0.15
uncertainty0
referenceMPO 778304
observations used333
oppositions15
arc length (days)8560
first opposition used2000
last opposition used2023
residual rms (arc-secs)0.77
perturbers coarse indicatorM-v
perturbers precise indicator003Ek
first observation date used2000-06-05.0
last observation date used2023-11-12.0
computer nameMPCLINUX
JD of orbit computation2456700.493826
perihelion JD uncertainty (days)7.9802E-05
argument of perihelion uncertainty (°)9.7387E-05
ascending node uncertainty (°)9.6231E-05
inclination uncertainty (°)6.5699E-06
eccentricity uncertainty 5.3380E-08
perihelion distance uncertainty (AU)1.3393E-07
Minimum Orbit Intersection Distances (in AU)
for orbit epoch: 2460200.5, reference: E2023-VN0
Mercury1.24409
Venus0.97924
Earth0.69277
Mars0.14082
Jupiter1.95156
Saturn6.05724
Uranus16.1025
Neptune26.821

Observations

345 total observations over interval: 2000 06 05.31792 – 2023 11 12.457036
These data are available for download (format description).

Date (UT) J2000 RA J2000 Dec Magn Location Ref
2000 06 05.31792 17 11 36.92 -16 04 46.7 17.2   704 – Lincoln Laboratory ETS, New Mexico MPS 16024
2000 06 05.33136 17 11 36.23 -16 04 44.1 17.5   704 – Lincoln Laboratory ETS, New Mexico MPS 16024
2000 06 05.34477 17 11 35.56 -16 04 41.4 17.2   704 – Lincoln Laboratory ETS, New Mexico MPS 16024
2000 06 05.35817 17 11 34.84 -16 04 40.1 17.5   704 – Lincoln Laboratory ETS, New Mexico MPS 16024
2000 06 07.29791 17 10 10.64 -15 58 11.1 17.9   704 – Lincoln Laboratory ETS, New Mexico MPS 16024
2000 06 07.31185 17 10 09.98 -15 58 07.6 18.2   704 – Lincoln Laboratory ETS, New Mexico MPS 16024
2000 06 07.32708 17 10 09.27 -15 58 05.3 17.8   704 – Lincoln Laboratory ETS, New Mexico MPS 16024
2000 06 07.34001 17 10 08.64 -15 58 02.1 17.8   704 – Lincoln Laboratory ETS, New Mexico MPS 16024
2000 06 07.35360 17 10 07.97 -15 58 00.4 18.0   704 – Lincoln Laboratory ETS, New Mexico MPS 16024
2000 06 24.24980 16 59 21.47 -15 25 08.4 18.3   704 – Lincoln Laboratory ETS, New Mexico MPS 134724
2000 06 24.26254 16 59 21.01 -15 25 08.2 18.3   704 – Lincoln Laboratory ETS, New Mexico MPS 134724
2000 06 24.27584 16 59 20.58 -15 25 08.1 18.0   704 – Lincoln Laboratory ETS, New Mexico MPS 134724
2000 06 24.28852 16 59 20.16 -15 25 07.2 18.4   704 – Lincoln Laboratory ETS, New Mexico MPS 134724
2004 08 06.44781 22 51 55.96 -02 03 45.1 19.5   644 – Palomar Mountain/NEAT MPS 134724
2004 08 06.45884 22 51 55.45 -02 03 48.4 19.6   644 – Palomar Mountain/NEAT MPS 134724
2004 08 06.46971 22 51 54.94 -02 03 51.5 19.3   644 – Palomar Mountain/NEAT MPS 134724
2004 08 25.31581 22 35 09.27 -04 00 39.2 19.8 V 691 – Steward Observatory, Kitt Peak-Spacewatch MPS 134724
2004 08 25.34287 22 35 07.63 -04 00 50.6 19.7 V 691 – Steward Observatory, Kitt Peak-Spacewatch MPS 134724
2004 08 25.37010 22 35 05.98 -04 01 02.4 19.7 V 691 – Steward Observatory, Kitt Peak-Spacewatch MPS 134724
2004 09 09.15895 22 21 22.34 -05 48 27.9 19.5 R 705 – Apache Point MPS 113208
2004 09 09.21031 22 21 19.64 -05 48 49.3 19.8 R 705 – Apache Point MPS 113208
2004 09 09.26332 22 21 16.84 -05 49 11.5 19.8 R 705 – Apache Point MPS 113208
2004 09 13.12128 22 18 10.01 -06 15 40.7 20.3 V 691 – Steward Observatory, Kitt Peak-Spacewatch MPS 113208
2004 09 13.15021 22 18 08.63 -06 15 52.7 20.6 V 691 – Steward Observatory, Kitt Peak-Spacewatch MPS 113208
2004 09 13.17819 22 18 07.28 -06 16 03.6 20.3 V 691 – Steward Observatory, Kitt Peak-Spacewatch MPS 113208
2004 09 22.31336 22 12 01.92 -07 12 21.6 20.4 V 691 – Steward Observatory, Kitt Peak-Spacewatch MPS 134724
2004 09 22.34093 22 12 00.96 -07 12 30.6 20.3 V 691 – Steward Observatory, Kitt Peak-Spacewatch MPS 134724
2004 09 22.36930 22 11 59.93 -07 12 40.0 20.8 V 691 – Steward Observatory, Kitt Peak-Spacewatch MPS 134724
2007 02 10.29421 11 03 53.31 +00 51 18.3 20.1 V 703 – Catalina Sky Survey MPS 199401
2007 02 10.30064 11 03 53.02 +00 51 19.1 19.4 V 703 – Catalina Sky Survey MPS 199401
2007 02 10.30704 11 03 52.84 +00 51 20.1 19.5 V 703 – Catalina Sky Survey MPS 199401
2007 02 10.31349 11 03 52.56 +00 51 19.7 19.4 V 703 – Catalina Sky Survey MPS 199401
2007 02 17.33609 10 59 16.69 +01 20 54.4 19.5 V 703 – Catalina Sky Survey MPS 200255
2007 02 17.34387 10 59 16.26 +01 20 56.8 19.3 V 703 – Catalina Sky Survey MPS 200255
2007 02 17.35159 10 59 15.86 +01 20 59.6 19.5 V 703 – Catalina Sky Survey MPS 200255
2007 02 17.35934 10 59 15.54 +01 21 01.9 18.9 V 703 – Catalina Sky Survey MPS 200255
2007 02 22.33981 10 55 17.18 +01 48 43.1 19.3   704 – Lincoln Laboratory ETS, New Mexico MPS 200255
2007 02 22.35137 10 55 16.50 +01 48 46.4 19.0   704 – Lincoln Laboratory ETS, New Mexico MPS 200255
2007 02 22.36293 10 55 15.83 +01 48 49.8 18.9   704 – Lincoln Laboratory ETS, New Mexico MPS 200255
2007 02 22.37450 10 55 15.24 +01 48 55.0 18.8   704 – Lincoln Laboratory ETS, New Mexico MPS 200255
2007 02 24.30998 10 53 35.21 +02 01 01.0 18.8   704 – Lincoln Laboratory ETS, New Mexico MPS 201416
2007 02 24.32168 10 53 34.65 +02 01 02.5 18.6   704 – Lincoln Laboratory ETS, New Mexico MPS 201416
2007 02 24.33367 10 53 33.91 +02 01 09.0 18.6   704 – Lincoln Laboratory ETS, New Mexico MPS 201416
2007 02 24.34586 10 53 33.18 +02 01 14.4 18.8   704 – Lincoln Laboratory ETS, New Mexico MPS 201416
2007 03 08.31254 10 42 23.39 +03 28 04.0 18.6 R 644 – Palomar Mountain/NEAT MPS 206118
2007 03 08.33300 10 42 22.17 +03 28 13.9 18.7 R 644 – Palomar Mountain/NEAT MPS 206118
2007 03 08.35467 10 42 20.87 +03 28 24.0 18.6 R 644 – Palomar Mountain/NEAT MPS 206118
2007 03 09.35539 10 41 23.74 +03 36 16.8 19.5 V 703 – Catalina Sky Survey MPS 202280
2007 03 09.36290 10 41 23.42 +03 36 19.9 18.8 V 703 – Catalina Sky Survey MPS 202280
2007 03 09.37045 10 41 22.88 +03 36 24.1 18.9 V 703 – Catalina Sky Survey MPS 202280
2007 03 09.37800 10 41 22.41 +03 36 27.0 18.4 V 703 – Catalina Sky Survey MPS 202280
2007 03 15.22306 10 35 59.49 +04 23 04.3 19.0 V 703 – Catalina Sky Survey MPS 202865
2007 03 15.23240 10 35 58.92 +04 23 09.4 19.1 V 703 – Catalina Sky Survey MPS 202865
2007 03 15.24174 10 35 58.41 +04 23 13.4 18.9 V 703 – Catalina Sky Survey MPS 202865
2007 03 15.25106 10 35 57.84 +04 23 17.7 18.8 V 703 – Catalina Sky Survey MPS 202865
2007 03 15.27122 10 35 56.81 +04 23 27.8 18.6   704 – Lincoln Laboratory ETS, New Mexico MPS 202865
2007 03 15.29263 10 35 55.53 +04 23 37.3 18.9   704 – Lincoln Laboratory ETS, New Mexico MPS 202865
2007 03 15.30334 10 35 54.91 +04 23 43.0 18.8   704 – Lincoln Laboratory ETS, New Mexico MPS 202865
2007 03 15.31406 10 35 54.40 +04 23 48.4 18.7   704 – Lincoln Laboratory ETS, New Mexico MPS 202865
2007 03 21.18778 10 31 00.62 +05 09 48.2 18.4 V 703 – Catalina Sky Survey MPS 204469
2007 03 21.19576 10 31 00.22 +05 09 52.7 18.8 V 703 – Catalina Sky Survey MPS 204469
2007 03 21.20373 10 30 59.86 +05 09 56.4 19.0 V 703 – Catalina Sky Survey MPS 204469
2007 03 21.21259 10 30 59.40 +05 10 00.6 18.7 V 703 – Catalina Sky Survey MPS 204469
2007 03 21.28716 10 30 55.74 +05 10 33.7 18.9   704 – Lincoln Laboratory ETS, New Mexico MPS 204469
2007 03 21.29817 10 30 55.20 +05 10 38.4 19.1   704 – Lincoln Laboratory ETS, New Mexico MPS 204469
2007 03 21.30907 10 30 54.69 +05 10 43.7 18.8   704 – Lincoln Laboratory ETS, New Mexico MPS 204469
2007 03 21.31964 10 30 54.19 +05 10 48.7 19.1   704 – Lincoln Laboratory ETS, New Mexico MPS 204469
2007 03 21.33039 10 30 53.62 +05 10 53.8 19.2   704 – Lincoln Laboratory ETS, New Mexico MPS 204469
2007 04 22.18833 10 23 03.84 +07 47 30.3 19.6 V G96 – Mt. Lemmon Survey MPS 207968
2007 04 22.19505 10 23 03.98 +07 47 30.9 19.8 V G96 – Mt. Lemmon Survey MPS 207968
2007 04 22.20174 10 23 04.09 +07 47 31.4 19.7 V G96 – Mt. Lemmon Survey MPS 207968
2007 04 22.20837 10 23 04.20 +07 47 32.1 19.6 V G96 – Mt. Lemmon Survey MPS 207968
2007 05 10.14830 10 34 51.70 +07 37 18.1 19.9 V G96 – Mt. Lemmon Survey MPS 208793
2007 05 10.15708 10 34 52.14 +07 37 16.7 19.9 V G96 – Mt. Lemmon Survey MPS 208793
2007 05 10.16594 10 34 52.64 +07 37 15.2 20.0 V G96 – Mt. Lemmon Survey MPS 208793
2007 05 10.17470 10 34 53.11 +07 37 14.1 19.9 V G96 – Mt. Lemmon Survey MPS 208793
2007 05 11.20934 10 35 52.76 +07 34 28.7 20.1 V G96 – Mt. Lemmon Survey MPS 208793
2007 05 11.21715 10 35 53.16 +07 34 27.1 20.1 V G96 – Mt. Lemmon Survey MPS 208793
2007 05 11.22512 10 35 53.62 +07 34 25.8 20.0 V G96 – Mt. Lemmon Survey MPS 208793
2007 05 11.23289 10 35 54.09 +07 34 24.4 19.9 V G96 – Mt. Lemmon Survey MPS 208793
2008 10 10.25220 00 48 46.33 +06 03 45.4 20.5 V G96 – Mt. Lemmon Survey MPS 259080
2008 10 10.25715 00 48 46.00 +06 03 43.2 20.8 V G96 – Mt. Lemmon Survey MPS 259080
2008 10 10.26210 00 48 45.75 +06 03 41.0 20.4 V G96 – Mt. Lemmon Survey MPS 259080
2008 10 10.26705 00 48 45.46 +06 03 39.1 20.5 V G96 – Mt. Lemmon Survey MPS 259080
2008 10 25.31420 00 36 03.35 +04 24 46.2   291 – LPL/Spacewatch II MPS 261255
2008 10 25.31820 00 36 03.15 +04 24 44.7   291 – LPL/Spacewatch II MPS 261255
2008 10 25.32256 00 36 02.97 +04 24 43.3   291 – LPL/Spacewatch II MPS 261255
2008 10 27.10362 00 34 46.71 +04 14 25.5 21.3 V 691 – Steward Observatory, Kitt Peak-Spacewatch MPS 261255
2008 10 27.12487 00 34 45.79 +04 14 18.1 20.8 V 691 – Steward Observatory, Kitt Peak-Spacewatch MPS 261255
